[[{"header":{"parameterUnit":"m.s-1","parameterCategory":1,"la1":30.2991,"la2":30.254,"lo1":-89.0895,"lo2":-89.0444,"dy":0.0017,"dx":0.0017,"nx":28,"ny":28,"refTime":"2024-06-07T21:00:00:Z","depth":0,"parameterNumber":2,"parameterNumberName":"U-component_of_WINDS"},"data":[0,0,0,0,0,0,0,0,0,0,0,0,0,0,0,0,0,0,0,0,0,0,0,0,0,0,0,0,0,0,0,0,0,0,0,0,0,0,0,0,0,0,0,0,0,0,0,0,0,0,0,0,0,0,0,0,0,0,-0.9303,-0.9302,0,-0.921,-0.9209,-0.9208,-0.9166,-0.9166,-0.9166,-0.9166,-0.9069,-0.9066,-0.9063,0,0,0,0,0,0,0,0,0,0,0,0,0,-0.9442,-0.9439,-0.9303,-0.9302,-0.9301,-0.921,-0.9209,-0.9208,-0.9166,-0.9166,-0.9166,-0.9166,-0.907,-0.9066,-0.9063,0,0,0,0,0,0,0,0,0,0,0,0,0,-0.9368,-0.9439,-0.9303,-0.9269,-0.9265,-0.9211,-0.9209,-0.9207,-0.9166,-0.9166,-0.9166,-0.9166,-0.9071,-0.9067,-0.9063,-0.9035,0,0,-0.905,-0.9049,0,0,0,0,0,0,0,0,-0.9373,-0.9363,-0.9275,-0.9271,-0.9267,-0.92,-0.9222,-0.9149,-0.9166,-0.9204,-0.9166,-0.9167,-0.9112,-0.9105,-0.9087,-0.903,-0.9026,-0.905,-0.9048,-0.9046,-0.9045,0,0,0,0,0,0,0,-0.9378,-0.9367,-0.9266,-0.9274,-0.9269,-0.9258,-0.9247,-0.9208,-0.9158,-0.92,-0.9197,-0.9187,-0.911,-0.9091,-0.9084,-0.9024,-0.905,-0.9047,-0.9044,-0.9042,-0.894,-0.894,0,0,0,0,0,0,-0.9389,-0.9372,-0.9269,-0.9263,-0.9321,-0.9255,-0.9243,-0.9221,-0.9158,-0.9149,-0.9187,-0.9185,-0.9098,-0.9089,-0.9081,-0.9043,-0.9046,-0.9042,-0.904,-0.894,-0.894,-0.8939,0,0,0,0,0,0,-0.9392,-0.938,-0.9273,-0.9317,-0.9302,-0.9252,-0.9228,-0.9219,-0.92,-0.9148,-0.9139,-0.9177,-0.9097,-0.9086,-0.9047,-0.904,-0.904,-0.9037,-0.894,-0.894,-0.894,-0.8969,0,0,0,0,0,0,-0.9396,-0.9381,-0.9371,-0.9317,-0.93,-0.9241,-0.9227,-0.9217,-0.9194,-0.9191,-0.9136,-0.9127,-0.9097,-0.9053,-0.9043,-0.9034,-0.9033,-0.8941,-0.894,-0.894,-0.8969,-0.897,-0.8971,0,0,0,0,0,-0.9401,-0.9382,-0.937,-0.9358,-0.9286,-0.9241,-0.9231,-0.9197,-0.9193,-0.9182,-0.9148,-0.9129,-0.9042,-0.9049,-0.9037,-0.9027,-0.8941,-0.894,-0.894,-0.8968,-0.897,-0.8971,0,0,0,0,0,0,-0.9435,-0.9374,-0.9361,-0.9324,-0.9288,-0.9234,-0.9218,-0.92,-0.9163,-0.9162,-0.9121,-0.9109,-0.9073,-0.9046,-0.9055,-0.8997,-0.899,-0.8987,-0.9016,-0.9016,-0.9018,-0.9025,-0.903,0,0,0,0,0,-0.9439,-0.9408,-0.9356,-0.9329,-0.9312,-0.9268,-0.9247,-0.9224,-0.9185,-0.917,-0.9133,-0.9095,-0.9059,-0.9036,-0.9,-0.8965,-0.8952,-0.8952,-0.8953,-0.8954,-0.8952,-0.8931,-0.893,-0.8937,-0.8937,-0.8937,0,0,-0.9445,-0.9408,-0.9391,-0.9335,-0.9304,-0.9273,-0.9256,-0.9223,-0.9199,-0.9164,-0.9125,-0.9097,-0.9052,-0.9014,-0.8995,-0.8991,-0.8948,-0.8954,-0.8955,-0.8952,-0.893,-0.893,-0.8929,-0.8937,-0.8937,-0.8937,0,0,-0.9441,-0.941,-0.9384,-0.9354,-0.9309,-0.928,-0.9274,-0.9222,-0.9203,-0.9163,-0.9136,-0.9107,-0.9046,-0.9015,-0.8991,-0.8976,-0.8957,-0.8965,-0.8971,-0.8951,-0.8951,-0.895,-0.8944,-0.8943,-0.8963,-0.8963,-0.8963,0,-0.9454,-0.9407,-0.9372,-0.9342,-0.9317,-0.9286,-0.9258,-0.9231,-0.9175,-0.9159,-0.9155,-0.9078,-0.9045,-0.9,-0.8996,-0.8978,-0.8969,-0.8971,-0.8954,-0.8953,-0.8951,-0.8946,-0.8944,-0.8965,-0.8965,-0.8964,-0.8964,0,-0.9426,-0.9393,-0.9377,-0.9326,-0.93,-0.9271,-0.9232,-0.9209,-0.9189,-0.9161,-0.912,-0.908,-0.9036,-0.9023,-0.9002,-0.8975,-0.8973,-0.8962,-0.8954,-0.8953,-0.8947,-0.8944,-0.8967,-0.8966,-0.8966,-0.8965,0,0,-0.944,-0.9371,-0.9365,-0.9342,-0.929,-0.9263,-0.9233,-0.9191,-0.9172,-0.9135,-0.9108,-0.9058,-0.9047,-0.9021,-0.8996,-0.8979,-0.8969,-0.8969,-0.8967,-0.897,-0.8936,-0.8945,-0.8943,-0.8956,-0.8956,-0.8955,-0.894,0,-0.9428,-0.9374,-0.9342,-0.93,-0.9269,-0.9239,-0.9212,-0.9177,-0.915,-0.9119,-0.9089,-0.9054,-0.9042,-0.9026,-0.9008,-0.8974,-0.8962,-0.8975,-0.893,-0.8929,-0.8942,-0.894,-0.8949,-0.8936,-0.8937,-0.8937,-0.8936,0,-0.9407,-0.9372,-0.9328,-0.9279,-0.9265,-0.9242,-0.9201,-0.9172,-0.9132,-0.9113,-0.9084,-0.9059,-0.9025,-0.9021,-0.8973,-0.8983,-0.8963,-0.8944,-0.8943,-0.8937,-0.8933,-0.8934,-0.8931,-0.8929,-0.8932,-0.8933,-0.8933,0,-0.9422,-0.9364,-0.9329,-0.931,-0.9253,-0.9238,-0.9213,-0.9172,-0.9149,-0.9113,-0.9097,-0.9057,-0.9035,-0.9004,-0.8969,-0.8969,-0.8925,-0.8917,-0.8908,-0.8909,-0.89,-0.8901,-0.8894,-0.8887,-0.8887,-0.8887,-0.8887,0,-0.9413,-0.9386,-0.9335,-0.9314,-0.9284,-0.9247,-0.9218,-0.9191,-0.9155,-0.9128,-0.9099,-0.9073,-0.9029,-0.8998,-0.8971,-0.8935,-0.8925,-0.8909,-0.8902,-0.8911,-0.8914,-0.8897,-0.8897,-0.8887,-0.8887,-0.8887,-0.8887,0,-0.9424,-0.9389,-0.9349,-0.9299,-0.9286,-0.9265,-0.9222,-0.92,-0.9171,-0.9137,-0.9127,-0.9082,-0.9044,-0.9007,-0.8955,-0.8937,-0.8902,-0.8892,-0.8916,-0.8912,-0.8904,-0.8906,-0.8887,-0.8882,-0.8879,-0.888,-0.888,0,-0.942,-0.9399,-0.9347,-0.9327,-0.9303,-0.9271,-0.9247,-0.9211,-0.9187,-0.914,-0.9123,-0.9083,-0.9049,-0.899,-0.8952,-0.8913,-0.8902,-0.8898,-0.8896,-0.8906,-0.8902,-0.8904,-0.8901,-0.8899,-0.89,-0.89,-0.89,0,-0.9416,-0.94,-0.9368,-0.9329,-0.9302,-0.927,-0.9236,-0.9221,-0.9178,-0.9153,-0.9114,-0.9088,-0.9036,-0.8997,-0.8953,-0.8927,-0.8906,-0.8901,-0.8897,-0.8906,-0.8921,-0.8912,-0.8919,-0.8902,-0.8901,-0.8901,-0.8901,-0.8901,-0.9419,-0.94,-0.936,-0.9325,-0.9296,-0.9266,-0.9243,-0.9212,-0.918,-0.9135,-0.9115,-0.9077,-0.9036,-0.8976,-0.895,-0.8918,-0.8913,-0.8906,-0.8905,-0.8904,-0.8906,-0.8926,-0.891,-0.891,-0.891,-0.891,-0.891,0,-0.9415,-0.9388,-0.9356,-0.9311,-0.9283,-0.9267,-0.9229,-0.9207,-0.9173,-0.9138,-0.9106,-0.9061,-0.9023,-0.8983,-0.8942,-0.8925,-0.8914,-0.8915,-0.8916,-0.891,-0.8913,-0.8921,-0.8924,-0.8924,-0.8924,-0.8924,-0.8924,-0.8924,-0.9409,-0.9375,-0.9354,-0.9305,-0.9278,-0.9241,-0.922,-0.9192,-0.9164,-0.9116,-0.9084,-0.9059,-0.9021,-0.8978,-0.8942,-0.8931,-0.8917,-0.8921,-0.8907,-0.8911,-0.891,-0.8909,-0.8916,-0.8918,-0.8918,-0.8907,-0.8906,-0.8906]},{"header":{"parameterUnit":"m.s-1","parameterCategory":1,"la1":30.2991,"la2":30.254,"lo1":-89.0895,"lo2":-89.0444,"dy":0.0017,"dx":0.0017,"nx":28,"ny":28,"refTime":"2024-06-07T21:00:00:Z","depth":0,"parameterNumber":3,"parameterNumberName":"V-component_of_WINDS"},"data":[0,0,0,0,0,0,0,0,0,0,0,0,0,0,0,0,0,0,0,0,0,0,0,0,0,0,0,0,0,0,0,0,0,0,0,0,0,0,0,0,0,0,0,0,0,0,0,0,0,0,0,0,0,0,0,0,0,0,-1.3819,-1.382,0,-1.3875,-1.3875,-1.3876,-1.3892,-1.3892,-1.3892,-1.3891,-1.3946,-1.3947,-1.3949,0,0,0,0,0,0,0,0,0,0,0,0,0,-1.3726,-1.3727,-1.3819,-1.382,-1.3821,-1.3874,-1.3875,-1.3876,-1.3892,-1.3892,-1.3891,-1.3891,-1.3945,-1.3947,-1.3949,0,0,0,0,0,0,0,0,0,0,0,0,0,-1.3772,-1.3728,-1.3819,-1.3835,-1.3837,-1.3874,-1.3875,-1.3876,-1.3892,-1.3892,-1.3891,-1.3891,-1.3944,-1.3947,-1.3949,-1.3974,0,0,-1.3957,-1.3958,0,0,0,0,0,0,0,0,-1.377,-1.3776,-1.3832,-1.3834,-1.3837,-1.3876,-1.3862,-1.3909,-1.3892,-1.3871,-1.3891,-1.3891,-1.3923,-1.3927,-1.3938,-1.3976,-1.3979,-1.3957,-1.3959,-1.396,-1.3961,0,0,0,0,0,0,0,-1.3766,-1.3773,-1.3841,-1.3833,-1.3836,-1.3839,-1.3845,-1.3871,-1.3899,-1.3873,-1.3874,-1.3881,-1.3924,-1.3936,-1.394,-1.3979,-1.3957,-1.396,-1.3961,-1.3962,-1.4041,-1.4041,0,0,0,0,0,0,-1.3761,-1.3771,-1.3839,-1.3843,-1.3801,-1.3841,-1.3848,-1.3864,-1.3898,-1.3903,-1.3881,-1.3881,-1.3932,-1.3937,-1.3942,-1.3973,-1.396,-1.3963,-1.3964,-1.404,-1.4041,-1.4042,0,0,0,0,0,0,-1.3759,-1.3767,-1.3837,-1.3807,-1.3816,-1.3843,-1.3861,-1.3865,-1.3877,-1.3905,-1.3909,-1.3889,-1.3931,-1.3938,-1.3966,-1.3975,-1.3964,-1.3966,-1.404,-1.4041,-1.4041,-1.4036,0,0,0,0,0,0,-1.3756,-1.3766,-1.3776,-1.3807,-1.3818,-1.3861,-1.3861,-1.3866,-1.3882,-1.3883,-1.3913,-1.3917,-1.3932,-1.3962,-1.3969,-1.3979,-1.3968,-1.4039,-1.404,-1.4041,-1.4036,-1.4037,-1.4038,0,0,0,0,0,-1.3752,-1.3771,-1.3776,-1.3784,-1.3831,-1.3862,-1.3868,-1.3885,-1.3882,-1.3893,-1.391,-1.3916,-1.3973,-1.3965,-1.3972,-1.3983,-1.4039,-1.404,-1.4041,-1.4035,-1.4037,-1.4038,0,0,0,0,0,0,-1.3739,-1.3776,-1.3782,-1.3811,-1.3833,-1.3864,-1.3878,-1.3885,-1.3908,-1.3908,-1.3927,-1.3933,-1.396,-1.3974,-1.3964,-1.4009,-1.4006,-1.4009,-1.3999,-1.4001,-1.4002,-1.3998,-1.397,0,0,0,0,0,-1.374,-1.3763,-1.3793,-1.3816,-1.3827,-1.385,-1.3864,-1.3876,-1.3899,-1.3908,-1.3928,-1.3949,-1.3972,-1.3987,-1.4009,-1.4037,-1.4045,-1.4049,-1.405,-1.405,-1.4053,-1.407,-1.4072,-1.4046,-1.4046,-1.4046,0,0,-1.3742,-1.3764,-1.3777,-1.3814,-1.3833,-1.3856,-1.3858,-1.3882,-1.3899,-1.3911,-1.394,-1.3955,-1.398,-1.4009,-1.4022,-1.4021,-1.4062,-1.4052,-1.4052,-1.4055,-1.4071,-1.4074,-1.4076,-1.4047,-1.4046,-1.4046,0,0,-1.3757,-1.3776,-1.3798,-1.3817,-1.3845,-1.386,-1.3865,-1.3895,-1.3906,-1.3935,-1.3945,-1.3965,-1.4004,-1.4022,-1.4036,-1.4058,-1.4065,-1.4065,-1.407,-1.4087,-1.4089,-1.4091,-1.41,-1.4103,-1.4067,-1.4067,-1.4067,0,-1.3755,-1.379,-1.3808,-1.3832,-1.3848,-1.3861,-1.3884,-1.3901,-1.3934,-1.3945,-1.3943,-1.3993,-1.4011,-1.4044,-1.405,-1.406,-1.4067,-1.4062,-1.4087,-1.4089,-1.4091,-1.41,-1.4103,-1.4067,-1.4067,-1.4067,-1.4067,0,-1.3787,-1.3812,-1.3826,-1.386,-1.3877,-1.39,-1.3921,-1.3936,-1.3946,-1.3961,-1.399,-1.4012,-1.404,-1.4048,-1.4057,-1.4083,-1.4082,-1.4083,-1.4081,-1.4094,-1.4102,-1.4106,-1.4067,-1.4067,-1.4067,-1.4067,0,0,-1.3796,-1.384,-1.3845,-1.3861,-1.3893,-1.3912,-1.3935,-1.3963,-1.3976,-1.3998,-1.4019,-1.4051,-1.4054,-1.407,-1.408,-1.4094,-1.4112,-1.4094,-1.4095,-1.4098,-1.4143,-1.4143,-1.4146,-1.4116,-1.4117,-1.4117,-1.4141,0,-1.3816,-1.386,-1.3877,-1.3912,-1.3935,-1.3948,-1.3968,-1.399,-1.4004,-1.4025,-1.4041,-1.4065,-1.4065,-1.4075,-1.4089,-1.4107,-1.4121,-1.4105,-1.4135,-1.4136,-1.413,-1.4151,-1.415,-1.4172,-1.4145,-1.4145,-1.4146,0,-1.3845,-1.387,-1.3908,-1.3938,-1.3948,-1.3966,-1.3994,-1.4014,-1.4038,-1.4048,-1.4066,-1.4077,-1.4101,-1.4096,-1.4131,-1.4119,-1.4132,-1.4143,-1.4144,-1.4148,-1.4143,-1.4157,-1.4179,-1.4183,-1.4151,-1.415,-1.415,0,-1.385,-1.3892,-1.392,-1.3933,-1.3969,-1.3981,-1.3997,-1.4021,-1.4037,-1.406,-1.4071,-1.4096,-1.411,-1.413,-1.4146,-1.4141,-1.4179,-1.4175,-1.4189,-1.4188,-1.4197,-1.4197,-1.4223,-1.4203,-1.4203,-1.4203,-1.4203,0,-1.3871,-1.3894,-1.3923,-1.3941,-1.3967,-1.3985,-1.4011,-1.4026,-1.4048,-1.4069,-1.408,-1.4099,-1.4119,-1.4141,-1.4154,-1.4181,-1.4187,-1.4195,-1.4199,-1.4195,-1.4194,-1.4205,-1.4205,-1.4204,-1.4204,-1.4204,-1.4203,0,-1.3881,-1.3901,-1.3934,-1.3965,-1.3973,-1.3991,-1.4018,-1.4035,-1.405,-1.4076,-1.4083,-1.4107,-1.4133,-1.4151,-1.4184,-1.4193,-1.4223,-1.4225,-1.4215,-1.4217,-1.4229,-1.4229,-1.4265,-1.4271,-1.4245,-1.4246,-1.4246,0,-1.3894,-1.3913,-1.3946,-1.3962,-1.3977,-1.4001,-1.4018,-1.4036,-1.4053,-1.4083,-1.4097,-1.4124,-1.4147,-1.4187,-1.4207,-1.4232,-1.4237,-1.4248,-1.424,-1.4237,-1.4238,-1.4238,-1.424,-1.4249,-1.4249,-1.4249,-1.425,0,-1.3916,-1.3925,-1.3949,-1.3977,-1.3997,-1.402,-1.4042,-1.4054,-1.4076,-1.4094,-1.4122,-1.4139,-1.4174,-1.42,-1.4228,-1.4243,-1.425,-1.4251,-1.4256,-1.4254,-1.4248,-1.4253,-1.4219,-1.4251,-1.4251,-1.4251,-1.4251,-1.4251,-1.3929,-1.3946,-1.3973,-1.4,-1.4019,-1.404,-1.4058,-1.4076,-1.41,-1.413,-1.4139,-1.4167,-1.4192,-1.423,-1.4245,-1.4267,-1.4266,-1.4273,-1.4275,-1.4276,-1.4277,-1.4243,-1.4272,-1.4272,-1.4272,-1.4272,-1.4272,0,-1.3952,-1.397,-1.3995,-1.4027,-1.4048,-1.4053,-1.4079,-1.4096,-1.4121,-1.4144,-1.4166,-1.4198,-1.4224,-1.4246,-1.4272,-1.4286,-1.429,-1.4293,-1.4293,-1.4296,-1.4275,-1.4269,-1.4289,-1.4289,-1.4289,-1.4289,-1.4289,-1.4289,-1.3967,-1.3997,-1.401,-1.4049,-1.4067,-1.4096,-1.411,-1.4129,-1.4148,-1.4183,-1.4205,-1.422,-1.4242,-1.4271,-1.4295,-1.43,-1.431,-1.4312,-1.4319,-1.4299,-1.4297,-1.4296,-1.429,-1.4314,-1.4314,-1.4338,-1.4338,-1.4339]}]]